Regional Weather Roundup
Issued by NWS Cleveland, OH

Home | Current Version | Previous Version | Text Only | Print | Product List | Glossary Off
Versions: 1 2 3 4 5 6 7 8 9 10 11 12 13 14 15 16 17 18 19 20 21 22 23 24 25 26 27 28 29 30 31 32 33 34 35 36 37 38 39 40 41 42 43 44 45 46 47 48 49 50

957
ASUS41 KCLE 120312
RWRCLE
OHIO REGIONAL WEATHER ROUNDUP
NATIONAL WEATHER SERVICE WILMINGTON, OH
1000 PM EST THU FEB 11 2016

NOTE: "FAIR" INDICATES FEW OR NO CLOUDS BELOW 12,000 FEET WITH NO
SIGNIFICANT WEATHER AND/OR OBSTRUCTIONS TO VISIBILITY.

OHZ001>008-015>018-024>027-034-035-043-044-120400-
   NORTHWEST OHIO

CITY           SKY/WX    TMP DP  RH WIND       PRES   REMARKS
DEFIANCE       FAIR      18  11  74 SW3       30.27F
FINDLAY        CLOUDY    18  10  71 SW5       30.25F WCI  11
TOLEDO EXPRESS MOCLDY    12   4  70 SW3       30.26S
TOLEDO EXEC    FAIR      14   5  67 SW6       30.27F WCI   5
LIMA           CLOUDY    17   8  67 SW8       30.26S WCI   7
$$

OHZ009>014-019>023-028>033-038-089-120400-
   NORTHEAST OHIO

CITY           SKY/WX    TMP DP  RH WIND       PRES   REMARKS
CLE-HOPKINS    FAIR      12   3  67 SW8       30.28F WCI   0
CLE-LAKEFRONT  FLURRIES  19   7  59 SW12      30.26F WCI   7
CUY CO. ARPT   CLOUDY    18   9  68 SW12      30.25S WCI   5
LORAIN-ELYRIA  FAIR       8   0  69 SW7       30.26F WCI  -3
ASHTABULA      CLOUDY    12   4  70 CALM      30.25R
AKRON-CANTON   FAIR       9   1  70 SW5       30.24S WCI   1
WOOSTER        FAIR       4  -1  80 CALM      30.25F
MANSFIELD      FAIR      11   1  64 S6        30.23F WCI   1
YOUNGSTOWN     FAIR       9   6  88 SW6       30.23S WCI  -1
$$

OHZ042-051>053-060>062-070>072-077>081-120400-
  SOUTHWEST OHIO

CITY           SKY/WX    TMP DP  RH WIND       PRES   REMARKS
CINC-COVINGTON CLOUDY    20   7  57 CALM      30.29F
CINC-LUNKEN    FAIR      19  11  70 CALM      30.34S
HAMILTON       FAIR      16  10  77 CALM      30.33R
DAYTON         FAIR      17   8  67 CALM      30.28F
WRIGHT-PAT AFB PTCLDY    14   6  70 S2        30.29S
DAYTON GENERAL FAIR      15   5  64 CALM      30.28S
WILMINGTON     FAIR      11   4  73 E3        30.28S
$$

OHZ036-037-039>041-045>050-054>059-063>069-073>076-082>088-120400-
  CENTRAL AND SOUTHEAST OHIO

CITY           SKY/WX    TMP DP  RH WIND       PRES   REMARKS
COLUMBUS       FAIR      15   5  64 CALM      30.29F
OSU AIRPORT    FAIR      15   8  73 CALM      30.28F
BOLTON FIELD   FAIR       6   3  89 MISG      30.30S
RICKENBACK AFB CLOUDY    10   5  80 CALM      30.30S
NEWARK         MOCLDY    13   7  77 CALM      30.29S
MARION         CLOUDY    17   8  67 SW7       30.27S WCI   8
LANCASTER      MOCLDY     7   3  84 CALM      30.30F
ZANESVILLE     FAIR      12   6  77 CALM      30.29F
NEW PHILLY     FAIR       9   2  73 E3        30.29S
$$




USA.gov is the U.S. government's official web portal to all federal, state and local government web resources and services.